Time,TemperatureF,DewpointF,PressureIn,WindDirection,WindDirectionDegrees,WindSpeedMPH,WindSpeedGustMPH,Humidity,HourlyPrecipIn,Conditions,Clouds,dailyrainin,SoftwareType,DateUTC
2013-09-10 00:23:00,79.0,70.0,29.79,South,179,1.0,7.0,75,0.00,,,0.01,,2013-09-10 05:23:00,
2013-09-10 00:53:00,78.0,70.0,29.80,SSW,194,1.0,7.0,76,0.00,,,0.01,,2013-09-10 05:53:00,
2013-09-10 01:22:00,77.0,70.0,29.80,SSW,203,1.0,5.0,78,0.00,,,0.01,,2013-09-10 06:22:00,
2013-09-10 01:52:00,76.0,69.0,29.80,SSW,206,0.0,1.0,80,0.00,,,0.01,,2013-09-10 06:52:00,
2013-09-10 02:12:00,75.0,69.0,29.81,SSW,206,0.0,1.0,81,0.00,,,0.01,,2013-09-10 07:12:00,
2013-09-10 02:22:00,74.0,68.0,29.81,SSW,206,0.0,2.0,82,0.00,,,0.01,,2013-09-10 07:22:00,
2013-09-10 02:52:00,73.0,68.0,29.82,SSW,206,0.0,0.0,83,0.00,,,0.00,,2013-09-10 07:52:00,
2013-09-10 03:12:00,72.0,67.0,29.83,SSW,206,0.0,1.0,84,0.00,,,0.00,,2013-09-10 08:12:00,
2013-09-10 03:22:00,72.0,67.0,29.83,SSW,206,0.0,0.0,84,0.00,,,0.00,,2013-09-10 08:22:00,
2013-09-10 03:52:00,71.0,66.0,29.83,SSW,206,0.0,1.0,85,0.00,,,0.00,,2013-09-10 08:52:00,
2013-09-10 04:11:00,71.0,66.0,29.83,SSW,206,0.0,2.0,84,0.00,,,0.00,,2013-09-10 09:11:00,
2013-09-10 04:21:00,71.0,66.0,29.84,SSW,206,0.0,0.0,84,0.00,,,0.00,,2013-09-10 09:21:00,
2013-09-10 04:54:00,71.0,66.0,29.85,SSW,206,0.0,1.0,83,0.00,,,0.00,,2013-09-10 09:54:00,
2013-09-10 05:13:00,71.0,66.0,29.85,SSW,206,0.0,1.0,83,0.00,,,0.00,,2013-09-10 10:13:00,
2013-09-10 05:23:00,70.0,65.0,29.85,SSW,206,0.0,0.0,83,0.00,,,0.00,,2013-09-10 10:23:00,
2013-09-10 05:53:00,69.0,64.0,29.85,SSW,206,0.0,1.0,84,0.00,,,0.00,,2013-09-10 10:53:00,
2013-09-10 06:22:00,69.0,64.0,29.85,SSW,206,0.0,2.0,84,0.00,,,0.00,,2013-09-10 11:22:00,
2013-09-10 06:52:00,69.0,64.0,29.86,SSW,206,0.0,1.0,83,0.00,,,0.00,,2013-09-10 11:52:00,
2013-09-10 07:12:00,69.0,63.0,29.87,SSW,206,0.0,1.0,82,0.00,,,0.00,,2013-09-10 12:12:00,
2013-09-10 07:22:00,69.0,63.0,29.88,SSW,206,0.0,1.0,82,0.00,,,0.00,,2013-09-10 12:22:00,
2013-09-10 07:42:00,70.0,64.0,29.88,South,178,1.0,6.0,81,0.00,,,0.00,,2013-09-10 12:42:00,
2013-09-10 07:52:00,71.0,64.0,29.88,SSW,195,3.0,6.0,79,0.00,,,0.00,,2013-09-10 12:52:00,
2013-09-10 08:11:00,72.0,64.0,29.88,SSW,212,0.0,5.0,77,0.00,,,0.00,,2013-09-10 13:11:00,
2013-09-10 08:21:00,73.0,65.0,29.89,South,180,2.0,6.0,76,0.00,,,0.00,,2013-09-10 13:21:00,
2013-09-10 08:42:00,75.0,65.0,29.89,WSW,249,0.0,6.0,71,0.00,,,0.00,,2013-09-10 13:42:00,
2013-09-10 08:52:00,77.0,66.0,29.90,SSW,207,5.0,8.0,68,0.00,,,0.00,,2013-09-10 13:52:00,
2013-09-10 09:21:00,79.0,65.0,29.90,SSE,159,4.0,9.0,63,0.00,,,0.00,,2013-09-10 14:21:00,
2013-09-10 09:52:00,81.0,66.0,29.91,WSW,254,3.0,9.0,60,0.00,,,0.00,,2013-09-10 14:52:00,
2013-09-10 10:22:00,82.0,66.0,29.91,SW,222,5.0,10.0,58,0.00,,,0.00,,2013-09-10 15:22:00,
2013-09-10 10:54:00,84.0,66.0,29.91,SW,214,5.0,10.0,55,0.00,,,0.00,,2013-09-10 15:54:00,
2013-09-10 11:13:00,85.0,67.0,29.91,SSW,205,6.0,10.0,55,0.00,,,0.00,,2013-09-10 16:13:00,
2013-09-10 11:23:00,85.0,66.0,29.91,SSE,167,4.0,9.0,54,0.00,,,0.00,,2013-09-10 16:23:00,
2013-09-10 11:43:00,86.0,67.0,29.90,WNW,288,4.0,10.0,54,0.00,,,0.00,,2013-09-10 16:43:00,
2013-09-10 11:53:00,87.0,67.0,29.91,South,190,7.0,13.0,51,0.00,,,0.00,,2013-09-10 16:53:00,
2013-09-10 12:23:00,88.0,68.0,29.90,South,175,7.0,12.0,51,0.00,,,0.00,,2013-09-10 17:23:00,
2013-09-10 12:53:00,89.0,67.0,29.91,SSW,209,9.0,13.0,48,0.00,,,0.00,,2013-09-10 17:53:00,
2013-09-10 13:12:00,89.0,67.0,29.91,SSW,205,6.0,16.0,48,0.00,,,0.00,,2013-09-10 18:12:00,
2013-09-10 13:21:00,90.0,68.0,29.91,WSW,244,4.0,14.0,49,0.00,,,0.00,,2013-09-10 18:21:00,
2013-09-10 13:52:00,91.0,68.0,29.90,SSW,205,7.0,12.0,47,0.00,,,0.00,,2013-09-10 18:52:00,
2013-09-10 14:11:00,92.0,69.0,29.89,South,185,7.0,15.0,48,0.00,,,0.00,,2013-09-10 19:11:00,
2013-09-10 14:22:00,92.0,69.0,29.88,South,191,6.0,13.0,47,0.00,,,0.00,,2013-09-10 19:22:00,
2013-09-10 14:52:00,94.0,68.0,29.87,SE,139,4.0,15.0,43,0.00,,,0.00,,2013-09-10 19:52:00,
2013-09-10 15:21:00,94.0,66.0,29.87,WSW,257,8.0,16.0,40,0.00,,,0.00,,2013-09-10 20:21:00,
2013-09-10 15:52:00,95.0,66.0,29.88,WSW,241,7.0,20.0,39,0.00,,,0.00,,2013-09-10 20:52:00,
2013-09-10 16:23:00,95.0,67.0,29.88,SSW,202,5.0,16.0,40,0.00,,,0.00,,2013-09-10 21:23:00,
2013-09-10 16:54:00,94.0,66.0,29.88,WSW,257,7.0,14.0,40,0.00,,,0.00,,2013-09-10 21:54:00,
2013-09-10 17:14:00,94.0,66.0,29.87,South,184,7.0,21.0,40,0.00,,,0.00,,2013-09-10 22:14:00,
2013-09-10 17:24:00,94.0,66.0,29.87,WSW,247,6.0,14.0,40,0.00,,,0.00,,2013-09-10 22:24:00,
2013-09-10 17:54:00,93.0,66.0,29.87,SW,232,6.0,12.0,42,0.00,,,0.00,,2013-09-10 22:54:00,
2013-09-10 18:13:00,92.0,66.0,29.87,South,191,4.0,14.0,42,0.00,,,0.00,,2013-09-10 23:13:00,
2013-09-10 18:22:00,92.0,66.0,29.87,West,275,4.0,12.0,43,0.00,,,0.00,,2013-09-10 23:22:00,
2013-09-10 18:53:00,90.0,66.0,29.88,South,178,3.0,7.0,46,0.00,,,0.00,,2013-09-10 23:53:00,
2013-09-10 19:11:00,89.0,67.0,29.88,SSW,199,1.0,5.0,48,0.00,,,0.00,,2013-09-11 00:11:00,
2013-09-10 19:22:00,87.0,66.0,29.88,SSW,200,1.0,4.0,50,0.00,,,0.00,,2013-09-11 00:22:00,
2013-09-10 19:42:00,86.0,67.0,29.88,SSW,200,0.0,1.0,53,0.00,,,0.00,,2013-09-11 00:42:00,
2013-09-10 19:52:00,84.0,66.0,29.89,SSW,200,0.0,1.0,55,0.00,,,0.00,,2013-09-11 00:52:00,
2013-09-10 20:11:00,83.0,67.0,29.89,SSW,200,0.0,0.0,58,0.00,,,0.00,,2013-09-11 01:11:00,
2013-09-10 20:21:00,82.0,67.0,29.90,SSW,200,0.0,0.0,60,0.00,,,0.00,,2013-09-11 01:21:00,
2013-09-10 20:42:00,81.0,66.0,29.90,SSW,200,0.0,1.0,60,0.00,,,0.00,,2013-09-11 01:42:00,
2013-09-10 20:53:00,81.0,66.0,29.90,SSW,200,0.0,1.0,60,0.00,,,0.00,,2013-09-11 01:53:00,
2013-09-10 21:22:00,81.0,65.0,29.91,SSW,199,1.0,4.0,59,0.00,,,0.00,,2013-09-11 02:22:00,
2013-09-10 21:43:00,82.0,66.0,29.93,WNW,284,3.0,7.0,58,0.00,,,0.00,,2013-09-11 02:43:00,
2013-09-10 21:52:00,83.0,65.0,29.92,SSW,210,1.0,5.0,55,0.00,,,0.00,,2013-09-11 02:52:00,
2013-09-10 22:12:00,83.0,65.0,29.92,SSW,210,0.0,1.0,55,0.00,,,0.00,,2013-09-11 03:12:00,
2013-09-10 22:22:00,81.0,65.0,29.92,SSW,210,0.0,0.0,58,0.00,,,0.00,,2013-09-11 03:22:00,
2013-09-10 22:55:00,79.0,65.0,29.91,SSW,210,2.0,4.0,63,0.00,,,0.00,,2013-09-11 03:55:00,
2013-09-10 23:14:00,79.0,66.0,29.91,SSE,163,0.0,5.0,64,0.00,,,0.00,,2013-09-11 04:14:00,
2013-09-10 23:24:00,78.0,65.0,29.91,SSE,163,0.0,0.0,65,0.00,,,0.00,,2013-09-11 04:24:00,
2013-09-10 23:43:00,77.0,65.0,29.91,SSE,163,0.0,0.0,67,0.00,,,0.00,,2013-09-11 04:43:00,
2013-09-10 23:54:00,78.0,67.0,29.93,West,278,2.0,7.0,69,0.00,,,0.00,,2013-09-11 04:54:00,